Location: Newark
(56.0692°N, 115.8617°E)
Time: 12:39:02
(UTC+00:00)

Vanguard 2 Rocket - Pass Details

Date: 02 June 2020
Orbit: 556 x 3325 km, 32.9° (Epoch: 14 July)

Event Time Altitude Azimuth Distance (km) Brightness Sun altitude
Rises 11:43:38 0° 254° (WSW) 5,197 11.5 6.8°
Reaches altitude 10° 11:48:41 10° 234° (SW) 4,718 10.9 6.2°
Maximum altitude 11:55:52 16° 203° (SSW) 4,832 10.5 5.4°
Drops below altitude 10° 12:04:37 10° 173° (S) 5,898 10.7 4.4°
Sets 12:12:33 0° 156° (SSE) 7,217 10.9 3.5°
